Location: Newark
(13.8117°N, 3.6025°W)
Time: 03:39:34
(UTC+00:00)

Explorer 11/Cluster Stage 4 - Pass Details

Date: 26 August 2019
Orbit: 467 x 1259 km, 28.8° (Epoch: 20 October)

Event Time Altitude Azimuth Distance (km) Brightness Sun altitude
Rises 12:36:17 0° 301° (WNW) 4,171 10.3 84.0°
Reaches altitude 10° 12:39:38 10° 311° (NW) 3,228 9.9 83.4°
Maximum altitude 12:46:41 30° 9° (N) 2,038 9.1 81.8°
Drops below altitude 10° 12:53:22 10° 68° (ENE) 3,055 9.6 80.3°
Sets 12:56:27 0° 79° (E) 3,918 10.0 79.6°
